Theta_e
302 303 302 301 304 305 304 305 303 307 309 315 322 326 332 336 342 342 343 344 345 344 348 352 353 356 354 353 352 356 358 357 357 358 359 358 357 360 363 365 367 368 367 368
300 303 302 300 302 304 304 304 305 306 308 322 330 331 334 339 339 337 336 337 340 343 345 352 359 357 359 358 357 359 358 356 359 361 360 359 360 356 360 365 362 367 366 365
295 302 301 297 301 302 304 305 304 303 311 327 327 330 332 332 330 330 332 334 335 337 339 342 347 352 354 363 365 363 363 360 361 360 359 361 362 364 362 362 365 364 366 365
295 300 292 303 308 306 304 306 307 308 321 325 324 326 328 329 329 328 329 331 332 333 337 340 344 348 351 351 363 363 363 361 361 362 362 363 364 363 366 368 364 362 360 363
293 293 299 303 309 308 306 305 312 320 324 324 324 324 320 324 327 326 327 328 329 332 333 338 341 345 351 352 350 355 356 360 361 363 362 363 362 363 365 363 361 363 362 357
295 291 289 303 311 314 313 304 321 325 324 324 326 315 315 323 325 326 328 329 329 330 331 335 338 342 345 346 350 345 345 353 361 362 360 359 355 358 357 352 352 354 359 355
294 293 298 308 312 310 301 304 313 324 324 325 322 324 323 325 325 328 329 330 332 333 333 333 334 338 336 341 340 345 348 347 350 351 349 352 355 349 350 347 348 351 351 350
294 293 291 309 309 300 307 310 320 323 325 323 323 323 324 324 325 326 327 329 331 331 331 333 336 337 333 335 341 343 346 345 346 350 348 346 342 348 343 343 339 340 340 343
300 299 309 309 307 309 312 314 321 321 323 324 323 323 324 324 325 327 328 330 331 329 330 332 333 334 333 336 339 340 345 344 345 345 346 347 348 347 346 344 342 344 344 343
304 304 305 307 309 313 317 319 321 322 322 322 321 324 323 324 325 326 324 326 327 327 327 329 332 335 334 338 338 339 342 342 346 346 345 348 349 349 345 342 342 342 341 339
303 305 306 307 306 310 316 320 321 320 321 320 321 320 323 323 324 325 326 327 327 325 327 330 332 332 332 332 333 332 336 340 343 344 343 344 345 341 339 338 335 339 337 336
301 308 307 307 306 310 316 317 319 318 319 321 320 320 320 321 323 325 325 328 327 327 328 328 329 330 331 333 333 332 331 331 329 332 340 340 339 335 318 315 306 306 306 319
307 311 309 309 307 310 314 317 318 318 318 318 320 320 321 320 319 322 325 327 327 327 328 330 330 327 328 329 330 331 331 330 327 327 331 331 334 336 332 321 308 304 302 304
312 311 306 307 305 310 313 313 314 315 315 315 316 317 318 318 320 321 320 321 323 324 327 328 328 326 329 329 327 329 327 314 325 327 326 328 329 328 328 330 328 328 310 307
311 311 311 312 311 310 311 311 308 308 309 310 311 312 312 313 313 314 316 317 318 319 322 325 327 329 329 327 325 324 323 323 324 323 325 325 324 325 326 328 330 331 331 309
308 309 310 310 310 309 309 308 307 307 308 308 309 309 310 311 312 313 314 315 315 314 319 321 322 326 327 331 326 322 323 320 318 322 320 323 324 324 323 328 327 327 326 328
304 303 305 306 307 308 308 308 308 307 307 307 308 308 309 309 310 310 311 312 314 314 317 315 313 316 321 327 325 322 321 321 321 320 320 319 321 322 322 323 323 324 328 324
308 307 307 307 306 306 306 307 307 308 307 308 309 309 308 307 307 308 309 311 312 312 313 312 312 311 316 316 312 315 317 318 318 318 319 321 322 321 321 319 319 321 323 319
308 307 307 307 308 307 307 307 308 309 309 309 309 308 308 309 309 309 309 309 309 307 307 310 309 311 311 311 308 308 312 313 311 312 313 317 317 318 318 318 318 319 319 318
307 307 308 307 308 308 307 308 308 308 309 309 308 309 308 309 310 310 310 308 309 308 309 308 308 308 309 310 308 306 308 310 309 308 309 310 315 316 318 310 313 314 314 315
306 307 307 307 307 308 308 310 309 308 310 309 309 309 309 311 311 312 311 307 312 311 308 309 308 308 308 307 305 306 306 307 307 306 308 307 309 312 315 314 314 314 314 316
307 307 307 308 308 309 310 310 310 310 310 310 310 310 310 311 313 313 316 312 311 305 307 307 307 307 304 305 305 305 305 305 306 307 307 308 309 311 312 312 313 314 314 314
309 309 310 309 309 310 311 311 310 310 310 311 310 310 310 309 309 308 308 317 312 308 309 307 299 305 304 305 307 306 306 306 307 308 308 308 308 309 310 311 312 312 313 313
311 311 311 312 312 310 309 311 310 312 314 315 314 315 313 309 310 311 312 307 304 307 308 307 304 305 304 306 306 307 307 307 308 307 308 304 309 310 309 310 310 310 312 310
312 312 312 310 309 308 313 315 315 314 314 315 316 317 318 315 311 312 312 312 306 306 308 307 305 304 306 307 307 307 307 308 308 308 309 308 308 308 308 308 308 308 309 310
312 310 310 312 310 310 309 310 308 309 309 307 308 309 312 314 314 314 313 310 310 308 308 309 309 309 308 309 309 309 310 310 308 308 307 307 308 309 308 308 308 308 309 309
312 307 310 310 310 312 311 311 310 308 308 307 307 309 310 310 310 308 307 309 308 308 309 311 310 310 309 309 309 309 309 309 305 309 309 309 309 310 310 310 311 311 310 309
Wind_Speed
26 30 27 25 19 20 21 21 20 20 21 13 14 12 11 13 17 18 18 19 19 18 13 12 14 13 13 14 15 16 16 15 15 14 13 12 12 10 12 11 11 10 10 10
24 25 24 25 26 22 24 24 23 24 22 12 14 25 18 17 14 14 15 17 17 19 20 17 6 8 10 10 12 13 15 15 13 12 12 12 11 12 10 10 10 10 12 11
19 22 20 22 23 20 17 24 25 22 12 17 18 17 15 12 10 12 14 14 15 15 13 14 15 13 13 5 8 8 11 13 13 12 13 12 11 10 10 10 8 10 9 9
16 18 20 16 18 18 20 15 21 23 18 17 15 16 13 10 9 9 11 12 12 9 11 10 11 14 13 11 4 5 6 11 13 14 13 10 9 10 8 6 8 7 10 10
15 12 16 24 8 13 16 22 2 18 21 19 18 19 12 9 9 8 9 8 8 9 9 7 6 6 9 11 10 5 5 7 7 9 10 9 9 8 5 5 5 5 7 12
15 17 19 12 19 21 22 6 17 14 13 15 15 2 6 8 8 8 7 7 8 9 8 7 7 10 8 8 7 7 8 9 3 7 9 9 5 6 3 6 6 4 6 6
17 16 13 11 12 8 6 9 26 7 9 10 11 11 14 11 10 9 7 9 8 8 5 4 4 4 12 6 6 6 5 3 4 2 1 5 7 5 5 5 3 6 9 5
15 20 21 13 10 4 4 11 10 11 13 17 16 15 13 11 9 8 7 8 8 7 7 6 6 7 12 7 7 5 4 1 1 1 2 2 3 3 2 6 6 10 8 3
14 1 7 9 10 3 4 19 7 14 12 14 13 13 13 12 9 6 8 7 5 5 5 5 7 7 7 3 3 7 2 3 2 1 2 1 5 5 5 5 4 5 3 3
10 6 5 7 5 8 12 8 14 14 13 12 13 12 13 9 9 9 9 7 6 6 6 5 5 4 3 3 5 6 6 6 3 4 3 4 4 4 4 3 2 1 1 3
10 6 5 6 6 6 6 13 11 6 8 11 11 10 9 10 8 7 7 7 6 6 6 6 6 7 8 7 8 7 3 3 2 3 5 3 4 5 4 2 0 2 0 2
2 6 5 5 1 8 5 8 10 9 8 10 9 9 8 6 2 3 4 5 5 6 6 6 5 5 4 5 8 9 7 7 5 4 2 5 6 4 11 9 5 5 4 2
3 9 11 10 4 3 4 9 9 10 9 7 8 6 5 5 5 5 9 7 6 7 2 4 3 2 4 4 5 5 6 6 7 9 5 5 4 5 6 3 4 6 8 5
9 10 9 7 4 2 2 4 7 9 9 8 8 9 8 8 7 8 8 7 7 8 6 8 4 2 3 3 3 5 4 4 4 3 6 5 5 7 7 4 6 6 9 8
4 2 7 12 11 7 6 5 6 5 6 8 8 8 7 6 6 5 6 7 8 7 7 8 8 8 3 1 4 6 7 5 0 5 4 1 4 6 7 7 4 3 6 4
3 1 7 9 10 11 8 7 6 6 7 8 7 7 6 6 6 8 8 9 9 8 9 8 9 11 11 9 3 7 8 6 2 3 6 6 6 4 5 3 4 6 4 1
5 5 5 5 5 6 6 6 7 7 8 8 6 7 8 7 8 8 8 9 7 8 9 11 12 13 14 9 8 6 8 8 8 5 6 7 5 4 5 5 4 5 3 2
6 1 3 5 5 6 6 6 6 6 6 5 6 6 6 6 7 7 8 8 8 8 9 11 12 14 10 11 12 8 9 9 9 8 7 6 5 6 3 5 6 5 4 6
2 8 8 7 5 6 5 5 5 4 3 2 3 3 2 3 5 5 7 7 5 8 10 9 12 13 9 10 11 8 9 9 11 11 12 11 5 7 7 8 9 6 5 4
6 6 6 6 4 5 5 4 3 4 2 1 2 3 4 5 5 4 5 6 2 3 6 10 9 9 10 7 9 9 9 10 10 9 11 13 12 8 4 4 5 5 6 6
7 7 6 6 4 2 3 5 4 4 4 3 4 4 5 6 7 7 8 6 2 6 3 3 6 7 7 7 8 9 8 9 9 8 10 8 11 11 8 8 9 7 6 5
8 8 8 7 7 6 6 6 7 6 5 6 7 6 7 7 9 9 8 8 2 5 0 3 5 4 5 7 9 8 9 8 8 7 8 8 7 9 12 9 9 7 7 7
7 7 7 7 7 7 8 8 7 8 7 7 7 8 7 8 8 8 8 4 4 7 4 4 4 8 5 5 6 7 8 7 7 6 7 8 8 9 11 10 9 8 8 7
6 7 7 6 7 6 6 7 8 8 8 9 11 10 9 8 7 6 4 8 14 12 6 8 9 13 12 7 9 6 7 9 5 3 6 9 12 9 10 11 10 10 9 9
5 5 5 6 6 7 8 8 8 9 10 10 10 9 10 8 5 7 5 3 11 9 9 9 16 17 11 10 10 10 10 9 9 9 9 8 10 10 8 9 9 9 9 9
4 5 6 7 7 6 7 6 7 7 5 6 8 7 7 6 9 9 5 9 8 9 9 10 10 8 10 11 12 13 13 12 13 13 15 13 16 10 8 9 9 8 9 9
6 7 7 8 9 10 9 7 7 7 6 6 7 7 9 7 7 4 4 8 8 8 7 9 8 9 7 8 9 9 8 9 9 9 8 9 10 10 10 9 9 8 9 10
Wind_Direction
281 281 290 296 221 229 250 259 250 247 242 243 130 68 112 111 56 56 50 42 33 5 149 153 163 161 169 176 182 173 180 186 198 195 198 203 200 213 199 222 210 214 217 229
296 276 277 277 279 222 224 246 256 262 266 4 101 102 87 52 57 53 50 45 36 32 29 26 88 154 161 171 178 167 174 190 189 196 196 199 202 196 219 203 216 211 217 229
277 282 276 263 265 271 231 219 242 249 262 75 62 66 83 78 53 49 46 50 42 34 23 18 22 25 8 167 161 184 172 187 187 193 207 209 197 201 204 212 210 224 222 229
270 284 278 276 256 256 271 258 218 240 100 103 105 99 77 73 66 54 50 45 53 42 23 18 14 18 360 360 246 206 210 187 194 200 199 196 200 211 209 192 215 232 245 247
254 264 281 279 13 12 16 284 317 91 110 121 122 109 75 69 73 70 59 54 56 42 34 12 21 27 14 355 10 5 194 211 207 198 198 192 199 206 207 220 226 219 240 248
252 252 237 308 359 356 327 234 22 110 131 145 170 165 112 115 106 88 82 72 57 39 32 356 339 86 23 358 36 41 29 21 264 219 221 209 151 141 184 169 265 213 239 229
234 251 256 353 11 9 333 13 318 1 102 89 85 84 128 119 107 100 87 85 77 80 64 30 305 14 71 14 338 10 21 46 45 5 75 105 132 109 122 78 65 291 281 267
238 247 246 10 101 78 347 317 312 7 82 91 100 105 102 96 95 101 102 81 71 66 57 37 10 345 68 28 332 296 314 129 200 288 247 206 171 200 181 179 177 214 256 275
322 256 75 48 59 26 235 253 24 49 51 76 91 99 98 92 87 85 85 86 96 86 67 42 29 33 48 348 335 291 250 227 165 245 254 179 186 168 201 217 214 231 246 37
258 78 68 52 65 351 2 28 51 42 52 59 64 62 77 76 66 62 51 61 76 82 83 66 80 94 61 356 288 249 223 245 138 136 217 203 183 160 123 119 174 195 92 79
286 130 121 72 24 354 22 80 104 101 99 89 82 75 79 80 67 68 50 43 76 64 57 71 73 50 30 5 344 330 348 119 120 166 208 113 82 87 113 80 190 125 133 241
285 116 105 113 318 353 82 86 121 129 113 94 97 94 100 72 61 59 89 92 29 63 64 42 24 31 41 360 347 352 10 13 21 328 201 122 135 115 38 48 20 92 126 70
82 70 87 120 118 9 323 96 93 73 65 75 83 106 115 112 47 41 42 32 30 14 342 142 84 85 40 20 1 352 335 326 340 341 5 18 17 159 165 90 28 322 318 313
120 121 111 161 140 170 89 106 64 87 79 68 51 46 32 37 38 25 27 4 353 355 335 341 335 16 115 324 4 324 306 210 268 276 312 316 314 319 324 182 194 206 229 242
102 338 123 118 142 177 169 121 97 90 86 83 63 44 26 33 28 11 4 358 350 329 321 334 345 342 325 141 302 302 300 306 344 341 305 276 292 273 265 282 281 309 170 175
164 111 128 151 143 148 154 143 136 106 86 64 57 63 48 24 16 27 9 8 359 359 344 336 333 347 327 320 289 293 281 246 242 282 285 253 251 211 275 225 235 242 283 294
139 136 114 122 138 139 119 104 98 91 80 71 60 49 47 27 32 26 17 17 8 343 16 21 1 347 333 306 310 282 291 294 217 234 246 254 266 321 276 283 270 268 265 158
142 96 107 126 119 110 105 98 95 85 75 83 68 52 43 42 28 17 13 6 11 1 39 359 3 336 336 360 355 335 317 313 309 281 277 256 223 220 266 297 280 281 271 172
176 166 145 156 161 131 138 124 107 99 94 50 63 63 42 46 21 7 356 351 10 4 13 336 353 329 340 357 357 323 307 314 317 320 324 298 217 239 238 240 244 240 240 271
172 145 153 149 147 160 144 150 171 153 174 237 323 328 334 349 341 322 327 325 79 26 341 5 336 330 331 330 355 304 289 293 297 303 312 322 302 284 272 292 274 270 277 263
170 168 170 160 194 189 212 177 205 211 206 250 273 294 303 303 301 292 282 287 166 112 351 304 326 336 322 318 323 301 311 301 302 326 310 314 319 333 281 245 261 270 273 268
180 181 188 191 198 201 225 215 212 232 238 248 254 268 281 280 263 262 261 254 167 178 282 342 319 15 338 324 291 298 303 299 306 305 317 311 310 321 323 323 313 308 311 311
192 199 198 201 224 240 228 220 236 238 242 252 258 263 268 282 294 280 279 127 173 184 239 295 262 209 208 276 289 286 288 293 303 307 303 308 315 333 306 291 293 296 293 297
200 202 217 221 230 236 236 250 257 252 243 237 234 236 244 264 280 284 332 101 118 162 241 276 239 214 206 250 273 265 256 268 268 245 292 293 284 279 282 283 286 291 282 276
205 213 208 240 237 230 227 224 234 249 252 251 256 260 245 249 243 271 276 275 151 200 262 266 232 220 222 240 252 264 257 237 238 247 243 237 242 261 271 265 266 278 284 291
218 229 229 201 256 281 292 281 254 266 287 310 304 296 260 227 233 221 222 237 237 221 242 254 267 284 218 235 247 253 251 238 235 233 241 254 256 245 251 257 259 268 278 281
207 233 250 235 222 224 233 245 276 293 301 336 327 327 328 326 324 308 267 268 270 268 279 279 287 275 284 268 274 280 289 289 302 304 307 305 311 307 306 305 300 285 268 266